Погода в Ресифи

Бразилия     8°03′38″S   34°52′17″W
темп.,
°C
ветер,
м/с
пор.,
м/с
влажн.,
%
обл.,
%
осадки,
мм/ч
давл.,
гПа
погр.,
м
17 июня, чт
чт1700:00+26ююз668322 0.6 1015624
03:00+25ююз568526 1.7 1014521
06:00+25ююз668422 0.1 1015587
09:00+26ю677920 0.2 1017758
12:00+27ю66758 0.0 1016799
15:00+27ююв66775 0.0 1014766
18:00+26ю667812 0.0 1015764
21:00+26ю668020 0.4 1016679
18 июня, пт
пт1800:00+26ю56828 1.4 1016567
03:00+25ююз568412 2.7 1015506
06:00+25ююз568723 1.6 1016489
09:00+25ююз55824 3.0 1018489
12:00+26ю66761 1.3 1017624
15:00+27ю66750 1.4 1015707
18:00+26ю67770 0.0 1017676
21:00+26ююз56780 0.2 1018608
19 июня, сб
сб1900:00+25юз678515 0.1 1017510
03:00+25ююз678510 0.3 1016501
06:00+25юз55835 0.1 1017476
09:00+27ю67735 0.6 1018758
12:00+27ююв56715 0.2 1017692
15:00+27ююв567161 2.1 1016655
18:00+26ююв67775 1.8 1017612
21:00+26ю578270 5.4 1018456
20 июня, вс
вс2000:00+25ююз458230 3.8 1017327
03:00+25ююз44842 5.1 1016323
06:00+26юв45784 2.9 1017620
09:00+27вюв67760 6.8 1018883
12:00+27в68772 2.6 1016858
15:00+27в66722 3.6 1015988
18:00+27вюв45749 0.0 1016798
21:00+26вюв578046 2.4 1017535
21 июня, пн
пн2100:00+27в56746 1.3 1016919
03:00+26всв237692 1.6 1015437
06:00+26вюв347690 3.2 1016463
09:00+27в78769 6.0 1017961
12:00+27в46680 0.1 10161059
15:00+27в56732 0.3 1014857
18:00+27в56753 0.1 1015831
21:00+27вюв457677 0.2 1016597